LRSB Weather Reports


time (UTC)temp
F
wind
direction
speed
knots
gust
knots
rain 1hr
in
rain 24hr
in
rain mn
in
humidity
%
barometer
mb
20260506114811 79 130 7.8 0.0 0.00 0.00 0.00 23 1012.0
20260506113311 79 130 7.8 0.0 0.00 0.00 0.00 23 1012.0
20260506111811 79 20 6.1 0.0 0.00 0.00 0.00 28 1013.0
20260506110311 79 20 6.1 0.0 0.00 0.00 0.00 28 1013.0
20260506104811 77 110 6.1 0.0 0.00 0.00 0.00 28 1013.0
20260506103311 77 110 6.1 0.0 0.00 0.00 0.00 28 1013.0
20260506101811 77 110 6.1 0.0 0.00 0.00 0.00 30 1013.0
20260506100311 77 110 6.1 0.0 0.00 0.00 0.00 30 1013.0
20260506094811 77 2.6 0.0 0.00 0.00 0.00 30 1014.0
20260506093311 77 2.6 0.0 0.00 0.00 0.00 30 1014.0
20260506091811 75 2.6 0.0 0.00 0.00 0.00 31 1014.0
20260506090311 75 2.6 0.0 0.00 0.00 0.00 29 1014.0
20260506084811 73 30 2.6 0.0 0.00 0.00 0.00 31 1014.0
20260506083311 73 30 2.6 0.0 0.00 0.00 0.00 31 1014.0
20260506081807 72 50 2.6 0.0 0.00 0.00 0.00 38 1014.0
20260506080311 72 50 2.6 0.0 0.00 0.00 0.00 38 1014.0
20260506073311 70 100 5.2 0.0 0.00 0.00 0.00 40 1014.0
20260506071811 66 100 5.2 0.0 0.00 0.00 0.00 46 1014.0
20260506070311 66 100 5.2 0.0 0.00 0.00 0.00 46 1014.0
20260506061811 64 1.7 0.0 0.00 0.00 0.00 49 1014.0
20260506060312 64 1.7 0.0 0.00 0.00 0.00 49 1014.0
20260506050325 52 150 4.3 0.0 0.00 0.00 0.00 77 1014.0
20260506044826 54 40 2.6 0.0 0.00 0.00 0.00 67 1014.0
20260506043315 54 40 2.6 0.0 0.00 0.00 0.00 67 1014.0
20260506041812 50 100 2.6 0.0 0.00 0.00 0.00 76 1014.0
20260506040311 50 100 2.6 0.0 0.00 0.00 0.00 76 1014.0
20260506034811 46 0.9 0.0 0.00 0.00 0.00 76 1014.0
20260506033311 46 0.9 0.0 0.00 0.00 0.00 76 1014.0
20260506031811 46 1.7 0.0 0.00 0.00 0.00 76 1013.0
20260506030310 46 1.7 0.0 0.00 0.00 0.00 76 1013.0
20260506024811 46 40 2.6 0.0 0.00 0.00 0.00 76 1013.0
20260506023311 46 40 2.6 0.0 0.00 0.00 0.00 76 1013.0
20260506021811 46 1.7 0.0 0.00 0.00 0.00 76 1013.0
20260506020311 46 1.7 0.0 0.00 0.00 0.00 76 1013.0
20260506014810 45 1.7 0.0 0.00 0.00 0.00 76 1013.0
20260506013311 45 1.7 0.0 0.00 0.00 0.00 76 1013.0
20260506011811 46 1.7 0.0 0.00 0.00 0.00 71 1013.0
20260506010311 46 1.7 0.0 0.00 0.00 0.00 71 1013.0
20260506004811 46 1.7 0.0 0.00 0.00 0.00 76 1013.0
20260506003426 46 1.7 0.0 0.00 0.00 0.00 76 1013.0
20260506001811 50 1.7 0.0 0.00 0.00 0.00 67 1013.0
20260506000312 50 1.7 0.0 0.00 0.00 0.00 67 1013.0
20260505234811 46 270 2.6 0.0 0.00 0.00 0.00 82 1013.0
20260505233310 46 270 2.6 0.0 0.00 0.00 0.00 82 1013.0
20260505231811 48 1.7 0.0 0.00 0.00 0.00 82 1013.0
20260505230311 48 1.7 0.0 0.00 0.00 0.00 82 1013.0
20260505224811 48 1.7 0.0 0.00 0.00 0.00 71 1013.0
20260505223311 48 1.7 0.0 0.00 0.00 0.00 71 1013.0
20260505221808 52 0.9 0.0 0.00 0.00 0.00 62 1013.0
20260505220311 52 0.9 0.0 0.00 0.00 0.00 62 1013.0
20260505214812 50 1.7 0.0 0.00 0.00 0.00 71 1013.0
20260505213311 50 1.7 0.0 0.00 0.00 0.00 71 1013.0
20260505211811 57 0.9 0.0 0.00 0.00 0.00 48 1013.0
20260505210311 57 0.9 0.0 0.00 0.00 0.00 48 1013.0
20260505204813 57 40 2.6 0.0 0.00 0.00 0.00 55 1013.0
20260505203310 57 40 2.6 0.0 0.00 0.00 0.00 55 1013.0
20260505201842 57 1.7 0.0 0.00 0.00 0.00 55 1013.0
20260505200311 57 1.7 0.0 0.00 0.00 0.00 55 1013.0
20260505194811 57 120 2.6 0.0 0.00 0.00 0.00 55 1013.0
20260505193311 57 120 2.6 0.0 0.00 0.00 0.00 55 1013.0
20260505191811 59 250 5.2 0.0 0.00 0.00 0.00 51 1013.0
20260505190310 59 250 5.2 0.0 0.00 0.00 0.00 51 1013.0
20260505184811 61 250 6.1 0.0 0.00 0.00 0.00 48 1013.0
20260505183311 61 250 6.1 0.0 0.00 0.00 0.00 48 1013.0
20260505181811 57 260 6.1 0.0 0.00 0.00 0.00 59 1012.0
20260505180311 57 260 6.1 0.0 0.00 0.00 0.00 59 1012.0
20260505174808 70 260 2.6 0.0 0.00 0.00 0.00 33 1012.0
20260505173311 70 260 2.6 0.0 0.00 0.00 0.00 33 1012.0
20260505171811 75 360 4.3 0.0 0.00 0.00 0.00 29 1012.0
20260505170311 75 360 4.3 0.0 0.00 0.00 0.00 29 1012.0
20260505164811 77 350 4.3 0.0 0.00 0.00 0.00 19 1012.0
20260505163311 77 350 4.3 0.0 0.00 0.00 0.00 19 1012.0
20260505161811 77 1.7 0.0 0.00 0.00 0.00 19 1012.0
20260505160311 77 1.7 0.0 0.00 0.00 0.00 19 1012.0
20260505153311 79 2.6 0.0 0.00 0.00 0.00 20 1012.0
20260505151819 79 70 5.2 0.0 0.00 0.00 0.00 18 1012.0
20260505150311 79 70 5.2 0.0 0.00 0.00 0.00 18 1012.0
20260505140311 79 30 6.1 0.0 0.00 0.00 0.00 20 1013.0
20260505130311 79 5.2 0.0 0.00 0.00 0.00 21 1013.0
20260505124811 79 90 6.1 0.0 0.00 0.00 0.00 21 1014.0
20260505123311 79 90 6.1 0.0 0.00 0.00 0.00 21 1014.0
20260505121811 79 2.6 0.0 0.00 0.00 0.00 23 1014.0
20260505120316 77 30 5.2 0.0 0.00 0.00 0.00 21 1014.0